| time (UTC) | temp F | wind direction | speed MPH | gust MPH | rain 1hr in | rain 24hr in | rain mn in | humidity % | barometer mb |
| 20260506013516 | 70 | 0 | 10.0 | 15.0 | 0.00 | 0.00 | 0.00 | 35 | 1013.4 |
| 20260506012516 | 71 | 0 | 13.0 | 20.0 | 0.00 | 0.00 | 0.00 | 34 | 1012.9 |
| 20260506011516 | 71 | 338 | 14.0 | 20.0 | 0.00 | 0.00 | 0.00 | 32 | 1012.9 |
| 20260506010516 | 70 | 0 | 13.0 | 18.0 | 0.00 | 0.00 | 0.00 | 34 | 1013.6 |
| 20260506005516 | 71 | 0 | 14.0 | 20.0 | 0.00 | 0.00 | 0.00 | 34 | 1013.5 |
| 20260506004516 | 72 | 0 | 15.0 | 22.0 | 0.00 | 0.00 | 0.00 | 33 | 1013.5 |
| 20260506003516 | 70 | 0 | 13.0 | 20.0 | 0.00 | 0.00 | 0.00 | 38 | 1013.5 |
| 20260506002516 | 71 | 23 | 14.0 | 19.0 | 0.00 | 0.00 | 0.00 | 38 | 1013.5 |
| 20260506001516 | 72 | 0 | 12.0 | 18.0 | 0.00 | 0.00 | 0.00 | 35 | 1013.4 |
| 20260506000516 | 71 | 0 | 11.0 | 16.0 | 0.00 | 0.00 | 0.00 | 37 | 1013.4 |
| 20260505235516 | 70 | 0 | 9.0 | 12.0 | 0.00 | 0.00 | 0.00 | 40 | 1013.2 |
| 20260505234515 | 73 | 0 | 10.0 | 15.0 | 0.00 | 0.00 | 0.00 | 33 | 1013.4 |
| 20260505233516 | 75 | 0 | 11.0 | 16.0 | 0.00 | 0.00 | 0.00 | 32 | 1013.1 |
| 20260505232515 | 74 | 0 | 10.0 | 19.0 | 0.00 | 0.00 | 0.00 | 32 | 1013.5 |
| 20260505231516 | 72 | 23 | 12.0 | 19.0 | 0.00 | 0.00 | 0.00 | 36 | 1013.2 |
| 20260505230515 | 74 | 23 | 12.0 | 20.0 | 0.00 | 0.00 | 0.00 | 34 | 1013.5 |
| 20260505225515 | 72 | 23 | 13.0 | 23.0 | 0.00 | 0.00 | 0.00 | 34 | 1013.4 |
| 20260505224515 | 75 | 23 | 11.0 | 20.0 | 0.00 | 0.00 | 0.00 | 31 | 1013.7 |
| 20260505223515 | 75 | 338 | 11.0 | 19.0 | 0.00 | 0.00 | 0.00 | 27 | 1014.0 |
| 20260505222515 | 73 | 338 | 8.0 | 15.0 | 0.00 | 0.00 | 0.00 | 33 | 1014.3 |
| 20260505221515 | 71 | 23 | 10.0 | 14.0 | 0.00 | 0.00 | 0.00 | 35 | 1014.0 |
| 20260505220518 | 72 | 23 | 9.0 | 13.0 | 0.00 | 0.00 | 0.00 | 35 | 1013.5 |
| 20260505215517 | 73 | 23 | 6.0 | 9.0 | 0.00 | 0.00 | 0.00 | 32 | 1014.3 |
| 20260505214517 | 71 | 0 | 9.0 | 15.0 | 0.00 | 0.00 | 0.00 | 32 | 1014.0 |
| 20260505213517 | 72 | 0 | 9.0 | 15.0 | 0.00 | 0.00 | 0.00 | 33 | 1014.0 |
| 20260505212517 | 73 | 0 | 8.0 | 14.0 | 0.00 | 0.00 | 0.00 | 33 | 1013.7 |
| 20260505211517 | 74 | 0 | 7.0 | 14.0 | 0.00 | 0.00 | 0.00 | 30 | 1013.9 |
| 20260505210517 | 76 | 23 | 8.0 | 13.0 | 0.00 | 0.00 | 0.00 | 27 | 1013.9 |
| 20260505205517 | 74 | 0 | 7.0 | 13.0 | 0.00 | 0.00 | 0.00 | 30 | 1014.2 |
| 20260505204517 | 74 | 23 | 11.0 | 15.0 | 0.00 | 0.00 | 0.00 | 32 | 1014.3 |
| 20260505203517 | 75 | 0 | 6.0 | 12.0 | 0.00 | 0.00 | 0.00 | 29 | 1014.2 |
| 20260505202517 | 71 | 338 | 9.0 | 13.0 | 0.00 | 0.00 | 0.00 | 30 | 1014.2 |
| 20260505201516 | 71 | 0 | 9.0 | 14.0 | 0.00 | 0.00 | 0.00 | 35 | 1014.3 |
| 20260505200517 | 73 | 23 | 11.0 | 18.0 | 0.00 | 0.00 | 0.00 | 35 | 1014.0 |
| 20260505195516 | 72 | 23 | 8.0 | 14.0 | 0.00 | 0.00 | 0.00 | 29 | 1014.0 |
| 20260505194517 | 73 | 338 | 11.0 | 18.0 | 0.00 | 0.00 | 0.00 | 29 | 1014.0 |
| 20260505193516 | 71 | 23 | 6.0 | 11.0 | 0.00 | 0.00 | 0.00 | 32 | 1014.0 |
| 20260505192517 | 72 | 23 | 9.0 | 13.0 | 0.00 | 0.00 | 0.00 | 32 | 1014.3 |
| 20260505191517 | 72 | 23 | 10.0 | 16.0 | 0.00 | 0.00 | 0.00 | 37 | 1015.0 |
| 20260505190517 | 71 | 0 | 9.0 | 14.0 | 0.00 | 0.00 | 0.00 | 32 | 1013.8 |
| 20260505185516 | 70 | 23 | 8.0 | 12.0 | 0.00 | 0.00 | 0.00 | 35 | 1013.4 |
| 20260505184516 | 71 | 0 | 11.0 | 15.0 | 0.00 | 0.00 | 0.00 | 33 | 1013.7 |
| 20260505183516 | 68 | 0 | 9.0 | 13.0 | 0.00 | 0.00 | 0.00 | 41 | 1014.1 |
| 20260505182516 | 68 | 23 | 11.0 | 16.0 | 0.00 | 0.00 | 0.00 | 39 | 1014.6 |
| 20260505181516 | 68 | 0 | 9.0 | 14.0 | 0.00 | 0.00 | 0.00 | 37 | 1014.8 |
| 20260505180516 | 67 | 23 | 6.0 | 8.0 | 0.00 | 0.00 | 0.00 | 40 | 1014.4 |
| 20260505175516 | 69 | 23 | 8.0 | 13.0 | 0.00 | 0.00 | 0.00 | 42 | 1013.8 |
| 20260505174516 | 69 | 23 | 7.0 | 14.0 | 0.00 | 0.00 | 0.00 | 42 | 1014.1 |
| 20260505173516 | 69 | 23 | 3.0 | 16.0 | 0.00 | 0.00 | 0.00 | 41 | 1014.3 |
| 20260505172516 | 67 | 338 | 4.0 | 9.0 | 0.00 | 0.00 | 0.00 | 41 | 1014.7 |
| 20260505171516 | 66 | 315 | 5.0 | 7.0 | 0.00 | 0.00 | 0.00 | 45 | 1014.8 |
| 20260505170516 | 65 | 0 | 5.0 | 9.0 | 0.00 | 0.00 | 0.00 | 44 | 1014.2 |
| 20260505165516 | 64 | 203 | 3.0 | 7.0 | 0.00 | 0.00 | 0.00 | 45 | 1014.6 |
| 20260505164515 | 63 | 270 | 4.0 | 7.0 | 0.00 | 0.00 | 0.00 | 46 | 1014.0 |
| 20260505163517 | 62 | 270 | 4.0 | 8.0 | 0.00 | 0.00 | 0.00 | 46 | 1014.1 |
| 20260505162515 | 61 | 270 | 4.0 | 7.0 | 0.00 | 0.00 | 0.00 | 49 | 1014.4 |
| 20260505161516 | 59 | 248 | 3.0 | 6.0 | 0.00 | 0.00 | 0.00 | 51 | 1014.1 |
| 20260505160515 | 58 | 203 | 5.0 | 9.0 | 0.00 | 0.00 | 0.00 | 53 | 1014.4 |
| 20260505152516 | 53 | 203 | 6.0 | 8.0 | 0.00 | 0.00 | 0.00 | 64 | 1014.6 |
| 20260505151515 | 52 | 180 | 6.0 | 8.0 | 0.00 | 0.00 | 0.00 | 66 | 1014.6 |
| 20260505150515 | 51 | 180 | 5.0 | 8.0 | 0.00 | 0.00 | 0.00 | 67 | 1014.2 |
| 20260505140518 | 43 | 180 | 4.0 | 7.0 | 0.00 | 0.00 | 0.00 | 79 | 1013.7 |
| 20260505124517 | 39 | 180 | 5.0 | 7.0 | 0.00 | 0.00 | 0.00 | 81 | 1013.3 |
| 20260505123516 | 39 | 203 | 6.0 | 8.0 | 0.00 | 0.00 | 0.00 | 81 | 1013.4 |
| 20260505122517 | 39 | 180 | 5.0 | 7.0 | 0.00 | 0.00 | 0.00 | 81 | 1013.1 |
| 20260505121516 | 39 | 180 | 5.0 | 7.0 | 0.00 | 0.00 | 0.00 | 81 | 1013.4 |
| 20260505120516 | 40 | 180 | 4.0 | 6.0 | 0.00 | 0.00 | 0.00 | 81 | 1012.9 |
| 20260505115516 | 40 | 180 | 7.0 | 9.0 | 0.00 | 0.00 | 0.00 | 82 | 1012.4 |
| 20260505114516 | 40 | 180 | 6.0 | 11.0 | 0.00 | 0.00 | 0.00 | 83 | 1012.7 |
| 20260505113517 | 39 | 180 | 6.0 | 9.0 | 0.00 | 0.00 | 0.00 | 83 | 1012.3 |
| 20260505112516 | 39 | 180 | 5.0 | 7.0 | 0.00 | 0.00 | 0.00 | 83 | 1012.1 |
| 20260505111516 | 39 | 180 | 5.0 | 7.0 | 0.00 | 0.00 | 0.00 | 83 | 1012.1 |
| 20260505110516 | 39 | 180 | 4.0 | 6.0 | 0.00 | 0.00 | 0.00 | 83 | 1012.8 |
| 20260505101516 | 42 | 203 | 6.0 | 8.0 | 0.00 | 0.00 | 0.00 | 82 | 1013.0 |
| 20260505100516 | 42 | 180 | 5.0 | 6.0 | 0.00 | 0.00 | 0.00 | 82 | 1012.5 |
| 20260505095516 | 42 | 203 | 6.0 | 8.0 | 0.00 | 0.00 | 0.00 | 82 | 1012.3 |
| 20260505094516 | 42 | 203 | 7.0 | 9.0 | 0.00 | 0.00 | 0.00 | 82 | 1011.7 |
| 20260505093516 | 43 | 180 | 6.0 | 9.0 | 0.00 | 0.00 | 0.00 | 82 | 1011.9 |
| 20260505092516 | 43 | 203 | 7.0 | 9.0 | 0.00 | 0.00 | 0.00 | 82 | 1012.3 |
| 20260505091516 | 43 | 180 | 5.0 | 8.0 | 0.00 | 0.00 | 0.00 | 81 | 1012.6 |
| 20260505090516 | 43 | 203 | 6.0 | 9.0 | 0.00 | 0.00 | 0.00 | 82 | 1012.3 |
| 20260505085516 | 43 | 180 | 5.0 | 7.0 | 0.00 | 0.00 | 0.00 | 81 | 1012.0 |
| 20260505084517 | 44 | 180 | 5.0 | 7.0 | 0.00 | 0.00 | 0.00 | 81 | 1012.4 |
| 20260505083516 | 44 | 203 | 6.0 | 8.0 | 0.00 | 0.00 | 0.00 | 81 | 1012.4 |
| 20260505082519 | 43 | 180 | 5.0 | 7.0 | 0.00 | 0.00 | 0.00 | 80 | 1012.5 |
| 20260505081515 | 44 | 180 | 5.0 | 6.0 | 0.00 | 0.00 | 0.00 | 79 | 1012.8 |
| 20260505080515 | 44 | 180 | 6.0 | 8.0 | 0.00 | 0.00 | 0.00 | 79 | 1012.8 |
| 20260505075516 | 44 | 180 | 5.0 | 10.0 | 0.00 | 0.00 | 0.00 | 77 | 1012.8 |
| 20260505074515 | 44 | 203 | 3.0 | 5.0 | 0.00 | 0.00 | 0.00 | 77 | 1012.8 |
| 20260505073516 | 44 | 180 | 6.0 | 8.0 | 0.00 | 0.00 | 0.00 | 76 | 1012.6 |
| 20260505072515 | 44 | 180 | 4.0 | 6.0 | 0.00 | 0.00 | 0.00 | 72 | 1012.5 |
| 20260505071515 | 47 | 180 | 4.0 | 5.0 | 0.00 | 0.00 | 0.00 | 66 | 1012.8 |
| 20260505070517 | 51 | 203 | 4.0 | 7.0 | 0.00 | 0.00 | 0.00 | 58 | 1012.5 |
| 20260505065517 | 49 | 248 | 3.0 | 6.0 | 0.00 | 0.00 | 0.00 | 56 | 1012.5 |
| 20260505064517 | 49 | 203 | 3.0 | 5.0 | 0.00 | 0.00 | 0.00 | 61 | 1012.3 |
| 20260505063517 | 49 | 203 | 4.0 | 6.0 | 0.00 | 0.00 | 0.00 | 58 | 1012.0 |
| 20260505062517 | 51 | 203 | 5.0 | 6.0 | 0.00 | 0.00 | 0.00 | 55 | 1011.8 |
| 20260505061517 | 56 | 315 | 4.0 | 7.0 | 0.00 | 0.00 | 0.00 | 40 | 1012.5 |
| 20260505060517 | 57 | 338 | 10.0 | 13.0 | 0.00 | 0.00 | 0.00 | 36 | 1011.9 |
| 20260505055517 | 56 | 338 | 10.0 | 16.0 | 0.00 | 0.00 | 0.00 | 38 | 1011.3 |
| 20260505054517 | 57 | 315 | 7.0 | 11.0 | 0.00 | 0.00 | 0.00 | 41 | 1011.7 |
| 20260505053519 | 58 | 338 | 11.0 | 16.0 | 0.00 | 0.00 | 0.00 | 36 | 1011.1 |
| 20260505052516 | 60 | 338 | 14.0 | 22.0 | 0.00 | 0.00 | 0.00 | 33 | 1010.9 |
| 20260505051517 | 60 | 0 | 16.0 | 23.0 | 0.00 | 0.00 | 0.00 | 33 | 1010.9 |
| 20260505050517 | 60 | 338 | 15.0 | 23.0 | 0.00 | 0.00 | 0.00 | 35 | 1011.3 |
| 20260505041516 | 60 | 0 | 10.0 | 14.0 | 0.00 | 0.00 | 0.00 | 42 | 1010.1 |
| 20260505040516 | 61 | 23 | 11.0 | 15.0 | 0.00 | 0.00 | 0.00 | 44 | 1010.3 |
| 20260505035516 | 62 | 0 | 11.0 | 16.0 | 0.00 | 0.00 | 0.00 | 39 | 1009.9 |
| 20260505034516 | 62 | 338 | 10.0 | 14.0 | 0.00 | 0.00 | 0.00 | 39 | 1009.9 |
| 20260505033516 | 63 | 338 | 9.0 | 13.0 | 0.00 | 0.00 | 0.00 | 38 | 1009.1 |
| 20260505032516 | 64 | 338 | 12.0 | 23.0 | 0.00 | 0.00 | 0.00 | 36 | 1009.0 |
| 20260505031516 | 64 | 338 | 11.0 | 16.0 | 0.00 | 0.00 | 0.00 | 36 | 1008.7 |
| 20260505030516 | 66 | 338 | 11.0 | 15.0 | 0.00 | 0.00 | 0.00 | 34 | 1009.5 |
| 20260505025516 | 66 | 338 | 12.0 | 19.0 | 0.00 | 0.00 | 0.00 | 33 | 1009.1 |
| 20260505024516 | 67 | 338 | 10.0 | 14.0 | 0.00 | 0.00 | 0.00 | 34 | 1009.1 |
| 20260505023516 | 68 | 338 | 12.0 | 18.0 | 0.00 | 0.00 | 0.00 | 31 | 1008.8 |
| 20260505022516 | 69 | 338 | 13.0 | 20.0 | 0.00 | 0.00 | 0.00 | 29 | 1008.4 |
| 20260505021516 | 68 | 0 | 11.0 | 18.0 | 0.00 | 0.00 | 0.00 | 31 | 1008.1 |
| 20260505020517 | 69 | 23 | 11.0 | 16.0 | 0.00 | 0.00 | 0.00 | 35 | 1009.3 |
| 20260505015516 | 69 | 23 | 11.0 | 15.0 | 0.00 | 0.00 | 0.00 | 34 | 1009.0 |
| 20260505014516 | 70 | 23 | 15.0 | 20.0 | 0.00 | 0.00 | 0.00 | 32 | 1008.7 |
| 20260505014144 | 70 | 0 | 11.0 | 18.0 | 0.00 | 0.00 | 0.00 | 32 | 1008.4 |